Погода Обсерватория Федорова

Погода Обсерватория Федорова : погода сейчас, прогноз погоды и архив. Всё, что Вы хотите узнать о погоде Обсерватория Федорова!

Хотите узнать прогноз погоды Обсерватория Федорова? Тогда Вам сюда: Погода Обсерватория Федорова

Поиск расширенной информации на нашем сайте:

Другие новости

Новости СМИ2

Главная страница сайта

Новости сайта

03.07.2017

Напоминаем, что на нашем специализированном сайте Метеоцентр.Азия вы можете получить высокодетализированные автоматические прогнозы погоды по пунктам России, СНГ и мира в авиационном формате (включающие направление и скорость ветра, видимость, явления погоды, количество и форму облачности, нижнюю и верхнюю границу облачности).

Рекомендуем: Здесь Pro Evolution Soccer 2012 cкачать через торрент без регистрации бесплатно без вирусов и смс

Погода Обсерватория Федорова - сегодня

Время (UTC), дата Ветер
(°,м/с) 
Видим.   Явления Облачность Т
(°С)
Тd
(°С)
f(%) Тe
(°С)
Pmin
(гПа)
dP
(гПа)
Po
(мм)
O2
(г/м3)
Тmin Tmax R s Состояние
почвы
09 14.04.18 060 (СВ) 20000 м    10/10 450 м 
[Sc]
-16.9 -18.5 87 -23  996.3  -0.7  746  322           
15 14.04.18 060 (СВ) 20000 м    10/10 400 м 
[Sc]
-17.1 -18.6 88 -22  996.4  0.1  746  322           
18 14.04.18 060 (СВ) 20000 м    10/10 500 м 
[Sc]
-17.9 -19.4 88 -23  996.2  -0.2  746  323           
21 14.04.18 050 (СВ) 20000 м    10/10 600 м 
[Sc]
-18.3 -19.9 87 -25  996.1  -0.1  746  324           
00 15.04.18 060 (СВ) 20000 м    10/10 500 м 
[Sc]
-18.3 -19.9 87 -25  995.7  -0.4  745  323  -18.5      16  неравномерный
мокрый или
старый снег
100% 
00 16.04.18 110 (В) 6{14}  2000 м  слаб. ливневой снег  10/10 480 м кучево-дожд. 
[Cb cap]
-12.7 -13.8 91 -19  982.2  1.1  735  312  -16.7    23  неравномерный
сухой снег
100% 
15 16.04.18 150 (ЮВ) 9-12  20000 м  позёмок  6/3 600 м средняя 
[Sc|Ac trans]
-17.3 -18.9 87 -26  999.9  2.8  749  324           
03 17.04.18 тихо ()   20000 м    ясно 
-15.7 -18.1 82 -16  1004.7  0.9  752  323           
06 17.04.18 тихо ()   20000 м    ясно 
-14.3 -16.7 82 -14  1005.4  0.6  753  321           
09 17.04.18 090 (В) 20000 м    ясно 
-13.7 -15.4 87 -14  1006  0.6  753  321           
15 17.04.18 тихо ()   20000 м    8/0 средняя 
[Ac trans]
-18.4 -19.7 89 -18  1006.8  0.4  754  327           
18 17.04.18 100 (В) 0500 м  переохл. туман  ?/?  
-20.2 -21.9 86 -20  1006.7  -0.2  754  330           
21 17.04.18 130 (ЮВ) 0500 м  переохл. туман  ?/?  
-21.4 -23.3 85 -22  1007.2  0.6  754  331           
03 18.04.18 100 (В) 20000 м    10/0 средняя 
[As trans]
-16.6 -17.9 90 -17  1007.1  0.1  754  325           
06 18.04.18 060 (СВ) 20000 м    10/0 верхняя 
[Cs]
-15.6 -16.9 90 -19  1007.5  0.4  754  324           
09 18.04.18 100 (В) 20000 м    10/0 верхняя 
[Cs]
-14 -15.2 91 -18  1008.2  0.6  755  322           
15 18.04.18 060 (СВ) 20000 м    8/0 средняя 
[Ac trans]
-16.6 -17.9 90 -19  1009.4  0.3  756  326           
18 18.04.18 040 (СВ) 4000 м  слаб. ливневой снег  10/10 300 м кучево-дожд. 
[Cb cap]
-14 -15.1 91 -19  1009  -0.3  755  322           
21 18.04.18 030 (СВ) 4000 м  слаб. ливневой снег  10/10 300 м кучево-дожд. 
[Cb cap]
-12.7 -13.8 91 -18  1008.8  -0.2  755  320           
03 19.04.18 050 (СВ) 20000 м  {ливн. осадки}  10/6 600 м средняя 
[Sc|Ac und]
-11.1 -12.1 92 -16  1007.8  -0.2  755  318           
06 19.04.18 050 (СВ) 20000 м  в посл. час ливневой снег  8/0 средняя, верхняя 
[Ac trans|Ci fib]
-10 -11 92 -14  1007.6  -0.2  754  317           
09 19.04.18 040 (СВ) 20000 м    9/0 средняя 
[Ac trans]
-10.1 -11.2 92 -14  1008  0.4  755  317           
15 19.04.18 250 (З) 4000 м  слаб. ливневой снег  10/10 600 м кучево-дожд. 
[Cb cap]
-12.3 -13.3 92 -14  1007.9  755  320           
18 19.04.18 240 (ЮЗ) 4000 м  слаб. ливневой снег  10/10 600 м кучево-дожд. 
[Cb cap]
-13.1 -14.1 92 -18  1007.3  -0.6  754  320           
21 19.04.18 240 (ЮЗ) 4000 м  слаб. ливневой снег  10/10 600 м кучево-дожд. 
[Cb cap]
-14.1 -15.3 91 -20  1006.8  -0.5  754  322           
Время (UTC), дата Ветер
(°,м/с) 
Видим.   Явления Облачность Т
(°С)
Тd
(°С)
f(%) Тe
(°С)
Pmin
(гПа)
dP
(гПа)
Po
(мм)
O2
(г/м3)
Тmin Tmax R s Состояние
почвы

Для получения пояснительной информации подведите курсор к названию столбца.

ПОГОДА Обсерватория Федорова - архив

Всё, что Вы хотите узнать о погоде Обсерватория Федорова - удобно и подробно!

Выберите нужную дату (начиная с 1 января 2015* года) и нажмите кнопку "Найти".
Будут отображены архивные сводки погоды по пункту Обсерватория Федорова, начиная с указанной даты.


Отображать данные в формате CSV (для использования в таблицах Excel)


Внимание! Наш архив погоды предназначен исключительно для личного некоммерческого использования в познавательных целях. Если Вам необходимы официальные справки о состоянии погоды (для производственных, юридических, коммерческих и т.п. целей), обращайтесь в органы Росгидромета.

*Примечание: данная дата относится к архиву по метеостанциям СССР (Россия, СНГ, Балтия).
Архив по метеостанциям Зарубежной Европы и Азии (кроме Китая) хранится 10 дней, по другим регионам земного шара (Китай, Африка, Америка, Австралия, Океания) - 1 день.

Обсерватория Федорова - район местоположения метеостанции


Название, широта, долгота, высота метеостанции:
Обсерватория Федорова (Мыс Челюскин) 77.7°ш. 104.3°д. 15 м над ур. моря [Российская Федерация]

Дополнительная информация

В oтличие oт бoльшинства пoгoдных сайтoв мы публикуем пoдрoбную метеoинфoрмацию в детальнoм прoфессиoнальнoм фoрмате.

Характеристики температуры и влажнoсти вoздуха измеряются на высoте 2 м в тени вдали oт зданий и деревьев.
Скoрoсть ветра измеряется на высoте 10 м (на урoвне рoста челoвека скoрoсть ветра ниже в 1.5-2 раза). Если метеoстанция нахoдится в гoрoде или в лесу, тo скoрoсть ветра занижена на 2-4 м/с пo сравнению с oткрытым местoм. Скoрoсть ветра над акватoриями крупных рек и oзёр, а также на вершинах хoлмoв на 2-5 м/с выше, чем в oбычных услoвиях.
Атмoсфернoе давление в разных тoчках местнoсти мoжет значительнo oтличаться oт давления на метеoстанции, в зависимoсти oт услoвий рельефа (при пoдъёме на 10 м давление пoнижается примернo на 1 мм рт.ст.).